Simultaneous Nadir Overpasses (SNOs) Predictions

Prediction of SNOs between AURA and NPP Satellite Orbit:

Table of predicted SNOs for the next 14.0 days since TLE Epoch: 12/12/2020
Index Date (AURA) Time (AURA) Lat,Lon (AURA) SZA (AURA ) Date (NPP) Time (NPP) Lat,Lon (NPP) SZA (NPP ) Distance(km) Time Diff (sec)
1 12/13/2020 11:24:59 -79.41, 84.93 64.94 12/13/2020 11:24:11 -79.41, 84.82 64.89 2.39 48
2 12/13/2020 12:14:16 79.75,-105.05 114.60 12/13/2020 12:14:45 79.75,-104.98 114.57 1.51 29
3 12/16/2020 03:41:26 -79.52,-158.50 64.89 12/16/2020 03:41:04 -79.51,-158.60 64.85 2.20 22
4 12/16/2020 04:30:44 79.80, 11.27 114.71 12/16/2020 04:31:39 79.81, 11.35 114.66 1.73 55
5 12/18/2020 19:08:32 79.33, 148.50 115.51 12/18/2020 19:07:19 79.32, 148.36 115.59 3.06 73
6 12/18/2020 19:57:52 -79.61, -41.95 64.88 12/18/2020 19:57:56 -79.61, -42.02 64.87 1.28 4
7 12/21/2020 11:24:58 79.46, -94.77 115.42 12/21/2020 11:24:11 79.45, -94.84 115.47 1.54 47
8 12/21/2020 12:14:18 -79.73, 74.83 64.97 12/21/2020 12:14:48 -79.73, 74.85 64.99 0.41 30
9 12/24/2020 03:41:24 79.58, 21.93 115.29 12/24/2020 03:41:03 79.58, 21.96 115.30 0.71 21



Historial Predications of SNOs between AURA and NPP
